| time (UTC) | temp C | wind direction | speed KPH | gust KPH | rain 1hr cm | rain 24hr cm | rain mn cm | humidity % | barometer mb |
| 20260507052528 | 15 | 358 | 1.6 | 4.8 | 0.00 | 0.00 | 0.00 | 55 | 1009.8 |
| 20260507051527 | 15 | 348 | 1.6 | 6.4 | 0.00 | 0.00 | 0.00 | 55 | 1009.7 |
| 20260507050529 | 15 | 8 | 1.6 | 4.8 | 0.00 | 0.00 | 0.00 | 54 | 1009.6 |
| 20260507045520 | 15 | 288 | 1.6 | 4.8 | 0.00 | 0.00 | 0.00 | 54 | 1009.4 |
| 20260507044528 | 15 | 202 | 1.6 | 4.8 | 0.00 | 0.00 | 0.00 | 56 | 1009.1 |
| 20260507043521 | 15 | 161 | 3.2 | 6.4 | 0.00 | 0.00 | 0.00 | 56 | 1008.9 |
| 20260507042528 | 15 | 242 | 1.6 | 4.8 | 0.00 | 0.00 | 0.00 | 57 | 1008.9 |
| 20260507041520 | 15 | 327 | 3.2 | 6.4 | 0.00 | 0.00 | 0.00 | 57 | 1008.8 |
| 20260507040528 | 15 | 272 | 3.2 | 6.4 | 0.00 | 0.00 | 0.00 | 58 | 1008.6 |
| 20260507035536 | 15 | 2 | 3.2 | 6.4 | 0.00 | 0.00 | 0.00 | 57 | 1008.4 |
| 20260507034520 | 15 | 37 | 3.2 | 8.0 | 0.00 | 0.00 | 0.00 | 57 | 1008.5 |
| 20260507033528 | 15 | 154 | 3.2 | 4.8 | 0.00 | 0.00 | 0.00 | 56 | 1008.4 |
| 20260507032520 | 15 | 324 | 1.6 | 6.4 | 0.00 | 0.00 | 0.00 | 56 | 1008.4 |
| 20260507031528 | 15 | 296 | 3.2 | 4.8 | 0.00 | 0.00 | 0.00 | 58 | 1008.4 |
| 20260507030521 | 15 | 184 | 3.2 | 6.4 | 0.00 | 0.00 | 0.00 | 58 | 1008.2 |
| 20260507025528 | 15 | 12 | 1.6 | 6.4 | 0.00 | 0.00 | 0.00 | 58 | 1008.2 |
| 20260507024520 | 15 | 315 | 1.6 | 6.4 | 0.00 | 0.00 | 0.00 | 58 | 1008.1 |
| 20260507023528 | 15 | 321 | 3.2 | 9.7 | 0.00 | 0.00 | 0.00 | 57 | 1008.2 |
| 20260507022520 | 15 | 222 | 3.2 | 6.4 | 0.00 | 0.00 | 0.00 | 57 | 1008.1 |
| 20260507021519 | 15 | 332 | 1.6 | 6.4 | 0.00 | 0.00 | 0.00 | 57 | 1008.1 |
| 20260507020521 | 15 | 301 | 3.2 | 8.0 | 0.00 | 0.00 | 0.00 | 57 | 1008.0 |
| 20260507015528 | 15 | 249 | 1.6 | 6.4 | 0.00 | 0.00 | 0.00 | 56 | 1008.1 |
| 20260507014520 | 15 | 320 | 1.6 | 6.4 | 0.00 | 0.00 | 0.00 | 56 | 1008.1 |
| 20260507013528 | 15 | 300 | 1.6 | 8.0 | 0.00 | 0.00 | 0.00 | 56 | 1007.9 |
| 20260507012520 | 15 | 311 | 3.2 | 9.7 | 0.00 | 0.00 | 0.00 | 55 | 1007.8 |
| 20260507011528 | 15 | 312 | 3.2 | 9.7 | 0.00 | 0.00 | 0.00 | 56 | 1008.0 |
| 20260507010520 | 16 | 306 | 1.6 | 8.0 | 0.00 | 0.00 | 0.00 | 56 | 1007.7 |
| 20260507005521 | 16 | 318 | 3.2 | 6.4 | 0.00 | 0.00 | 0.00 | 56 | 1007.7 |
| 20260507004529 | 16 | 336 | 3.2 | 6.4 | 0.00 | 0.00 | 0.00 | 56 | 1007.7 |
| 20260507003521 | 16 | 327 | 1.6 | 11.3 | 0.00 | 0.00 | 0.00 | 56 | 1007.6 |
| 20260507002529 | 16 | 303 | 4.8 | 9.7 | 0.00 | 0.00 | 0.00 | 57 | 1007.6 |
| 20260507001521 | 16 | 317 | 3.2 | 8.0 | 0.00 | 0.00 | 0.00 | 58 | 1007.5 |
| 20260507000529 | 16 | 327 | 3.2 | 9.7 | 0.00 | 0.00 | 0.00 | 60 | 1007.4 |
| 20260506235529 | 16 | 320 | 3.2 | 6.4 | 0.00 | 0.00 | 0.00 | 62 | 1007.3 |
| 20260506234521 | 16 | 309 | 3.2 | 9.7 | 0.00 | 0.00 | 0.00 | 63 | 1007.2 |
| 20260506233529 | 16 | 319 | 1.6 | 6.4 | 0.00 | 0.00 | 0.00 | 63 | 1007.0 |
| 20260506232521 | 16 | 333 | 1.6 | 6.4 | 0.00 | 0.00 | 0.00 | 63 | 1006.9 |
| 20260506231529 | 15 | 45 | 1.6 | 3.2 | 0.00 | 0.00 | 0.00 | 62 | 1006.9 |
| 20260506230520 | 15 | 71 | 1.6 | 4.8 | 0.00 | 0.00 | 0.00 | 65 | 1006.8 |
| 20260506225529 | 15 | 130 | 1.6 | 4.8 | 0.00 | 0.00 | 0.00 | 65 | 1006.8 |
| 20260506224530 | 15 | 67 | 3.2 | 6.4 | 0.00 | 0.00 | 0.00 | 64 | 1006.6 |
| 20260506223521 | 15 | 80 | 1.6 | 3.2 | 0.00 | 0.00 | 0.00 | 63 | 1006.3 |
| 20260506222529 | 15 | 55 | 1.6 | 6.4 | 0.00 | 0.00 | 0.00 | 63 | 1006.1 |
| 20260506221521 | 16 | 9 | 1.6 | 3.2 | 0.00 | 0.00 | 0.00 | 62 | 1005.9 |
| 20260506220528 | 16 | 96 | 1.6 | 4.8 | 0.00 | 0.00 | 0.00 | 59 | 1005.6 |
| 20260506215529 | 16 | 159 | 4.8 | 8.0 | 0.00 | 0.00 | 0.00 | 59 | 1005.5 |
| 20260506214521 | 17 | 137 | 1.6 | 3.2 | 0.00 | 0.00 | 0.00 | 58 | 1005.2 |
| 20260506213529 | 17 | 157 | 4.8 | 11.3 | 0.00 | 0.00 | 0.00 | 57 | 1005.2 |
| 20260506212520 | 17 | 164 | 6.4 | 11.3 | 0.00 | 0.00 | 0.00 | 58 | 1004.9 |
| 20260506211529 | 17 | 162 | 6.4 | 11.3 | 0.00 | 0.00 | 0.00 | 57 | 1004.9 |
| 20260506210520 | 17 | 172 | 8.0 | 16.1 | 0.00 | 0.00 | 0.00 | 57 | 1004.7 |
| 20260506205529 | 17 | 161 | 8.0 | 19.3 | 0.00 | 0.00 | 0.00 | 57 | 1004.6 |
| 20260506204521 | 17 | 165 | 6.4 | 17.7 | 0.00 | 0.00 | 0.00 | 56 | 1004.4 |
| 20260506203528 | 18 | 160 | 6.4 | 16.1 | 0.00 | 0.00 | 0.00 | 55 | 1004.4 |
| 20260506202521 | 18 | 171 | 8.0 | 17.7 | 0.00 | 0.00 | 0.00 | 55 | 1004.4 |
| 20260506201520 | 18 | 155 | 8.0 | 17.7 | 0.00 | 0.00 | 0.00 | 54 | 1004.3 |
| 20260506200521 | 18 | 141 | 4.8 | 14.5 | 0.00 | 0.00 | 0.00 | 53 | 1004.3 |
| 20260506195529 | 18 | 168 | 8.0 | 22.5 | 0.00 | 0.00 | 0.00 | 54 | 1004.2 |
| 20260506194521 | 18 | 135 | 8.0 | 14.5 | 0.00 | 0.00 | 0.00 | 55 | 1004.1 |
| 20260506193528 | 18 | 134 | 8.0 | 17.7 | 0.00 | 0.00 | 0.00 | 54 | 1003.9 |
| 20260506192521 | 18 | 141 | 9.7 | 19.3 | 0.00 | 0.00 | 0.00 | 54 | 1004.0 |
| 20260506191529 | 19 | 150 | 6.4 | 20.9 | 0.00 | 0.00 | 0.00 | 53 | 1003.9 |
| 20260506190520 | 19 | 175 | 8.0 | 19.3 | 0.00 | 0.00 | 0.00 | 53 | 1003.8 |
| 20260506185530 | 19 | 168 | 11.3 | 29.0 | 0.00 | 0.00 | 0.00 | 52 | 1003.5 |
| 20260506184530 | 20 | 163 | 9.7 | 27.4 | 0.00 | 0.00 | 0.00 | 51 | 1003.5 |
| 20260506183521 | 20 | 175 | 9.7 | 20.9 | 0.00 | 0.00 | 0.00 | 50 | 1003.4 |
| 20260506182529 | 20 | 177 | 11.3 | 29.0 | 0.00 | 0.00 | 0.00 | 51 | 1003.2 |
| 20260506181521 | 20 | 175 | 14.5 | 24.1 | 0.00 | 0.00 | 0.00 | 51 | 1003.2 |
| 20260506180529 | 20 | 177 | 14.5 | 35.4 | 0.00 | 0.00 | 0.00 | 50 | 1003.1 |
| 20260506175522 | 20 | 175 | 16.1 | 35.4 | 0.00 | 0.00 | 0.00 | 50 | 1003.0 |
| 20260506174529 | 20 | 176 | 14.5 | 30.6 | 0.00 | 0.00 | 0.00 | 49 | 1003.0 |
| 20260506173521 | 21 | 175 | 14.5 | 30.6 | 0.00 | 0.00 | 0.00 | 48 | 1003.0 |
| 20260506172529 | 21 | 172 | 12.9 | 27.4 | 0.00 | 0.00 | 0.00 | 47 | 1003.0 |
| 20260506171521 | 21 | 174 | 9.7 | 20.9 | 0.00 | 0.00 | 0.00 | 47 | 1003.1 |
| 20260506170529 | 21 | 165 | 11.3 | 29.0 | 0.00 | 0.00 | 0.00 | 46 | 1003.4 |
| 20260506165529 | 21 | 164 | 12.9 | 29.0 | 0.00 | 0.00 | 0.00 | 46 | 1003.2 |
| 20260506164522 | 22 | 179 | 12.9 | 35.4 | 0.00 | 0.00 | 0.00 | 45 | 1003.4 |
| 20260506163530 | 22 | 163 | 11.3 | 25.7 | 0.00 | 0.00 | 0.00 | 44 | 1003.4 |
| 20260506162521 | 22 | 171 | 9.7 | 27.4 | 0.00 | 0.00 | 0.00 | 43 | 1003.7 |
| 20260506161529 | 22 | 164 | 11.3 | 29.0 | 0.00 | 0.00 | 0.00 | 42 | 1003.8 |
| 20260506160521 | 23 | 166 | 9.7 | 27.4 | 0.00 | 0.00 | 0.00 | 42 | 1003.7 |
| 20260506155529 | 23 | 166 | 11.3 | 25.7 | 0.00 | 0.00 | 0.00 | 42 | 1003.7 |
| 20260506154521 | 23 | 168 | 9.7 | 22.5 | 0.00 | 0.00 | 0.00 | 43 | 1003.7 |
| 20260506153529 | 22 | 177 | 16.1 | 30.6 | 0.00 | 0.00 | 0.00 | 43 | 1003.7 |
| 20260506152521 | 23 | 161 | 14.5 | 35.4 | 0.00 | 0.00 | 0.00 | 43 | 1003.8 |
| 20260506151529 | 23 | 169 | 16.1 | 35.4 | 0.00 | 0.00 | 0.00 | 43 | 1004.0 |
| 20260506150521 | 23 | 168 | 14.5 | 40.2 | 0.00 | 0.00 | 0.00 | 43 | 1003.9 |
| 20260506145529 | 23 | 174 | 12.9 | 33.8 | 0.00 | 0.00 | 0.00 | 42 | 1004.0 |
| 20260506144521 | 23 | 158 | 12.9 | 37.0 | 0.00 | 0.00 | 0.00 | 41 | 1003.9 |
| 20260506143522 | 23 | 165 | 14.5 | 37.0 | 0.00 | 0.00 | 0.00 | 40 | 1004.0 |
| 20260506142529 | 23 | 168 | 16.1 | 37.0 | 0.00 | 0.00 | 0.00 | 39 | 1004.1 |
| 20260506141521 | 24 | 165 | 16.1 | 30.6 | 0.00 | 0.00 | 0.00 | 37 | 1004.1 |
| 20260506140530 | 24 | 175 | 14.5 | 38.6 | 0.00 | 0.00 | 0.00 | 37 | 1004.0 |
| 20260506135530 | 25 | 173 | 12.9 | 29.0 | 0.00 | 0.00 | 0.00 | 36 | 1003.9 |
| 20260506134529 | 25 | 168 | 12.9 | 37.0 | 0.00 | 0.00 | 0.00 | 36 | 1004.0 |
| 20260506133521 | 25 | 171 | 12.9 | 27.4 | 0.00 | 0.00 | 0.00 | 36 | 1004.0 |
| 20260506132529 | 25 | 178 | 12.9 | 32.2 | 0.00 | 0.00 | 0.00 | 36 | 1004.0 |
| 20260506131521 | 25 | 164 | 11.3 | 27.4 | 0.00 | 0.00 | 0.00 | 35 | 1003.9 |
| 20260506130529 | 25 | 156 | 12.9 | 30.6 | 0.00 | 0.00 | 0.00 | 36 | 1004.0 |
| 20260506125529 | 25 | 162 | 11.3 | 24.1 | 0.00 | 0.00 | 0.00 | 35 | 1004.3 |
| 20260506124522 | 25 | 168 | 11.3 | 29.0 | 0.00 | 0.00 | 0.00 | 34 | 1004.2 |
| 20260506123530 | 25 | 179 | 11.3 | 25.7 | 0.00 | 0.00 | 0.00 | 34 | 1004.4 |
| 20260506122522 | 24 | 167 | 9.7 | 27.4 | 0.00 | 0.00 | 0.00 | 35 | 1004.4 |
| 20260506121529 | 24 | 162 | 11.3 | 27.4 | 0.00 | 0.00 | 0.00 | 35 | 1004.3 |
| 20260506120521 | 24 | 139 | 11.3 | 24.1 | 0.00 | 0.00 | 0.00 | 35 | 1004.5 |
| 20260506115522 | 25 | 154 | 12.9 | 30.6 | 0.00 | 0.00 | 0.00 | 35 | 1004.5 |
| 20260506114529 | 24 | 146 | 9.7 | 29.0 | 0.00 | 0.00 | 0.00 | 35 | 1004.7 |
| 20260506113522 | 24 | 166 | 9.7 | 22.5 | 0.00 | 0.00 | 0.00 | 34 | 1004.9 |
| 20260506112530 | 25 | 144 | 11.3 | 32.2 | 0.00 | 0.00 | 0.00 | 33 | 1005.0 |
| 20260506111521 | 25 | 156 | 11.3 | 24.1 | 0.00 | 0.00 | 0.00 | 32 | 1005.2 |
| 20260506110530 | 25 | 166 | 8.0 | 22.5 | 0.00 | 0.00 | 0.00 | 33 | 1005.2 |
| 20260506105530 | 23 | 132 | 12.9 | 24.1 | 0.00 | 0.00 | 0.00 | 33 | 1005.5 |
| 20260506104522 | 23 | 141 | 11.3 | 27.4 | 0.00 | 0.00 | 0.00 | 32 | 1005.7 |
| 20260506103529 | 23 | 141 | 12.9 | 30.6 | 0.00 | 0.00 | 0.00 | 38 | 1005.9 |
| 20260506102522 | 23 | 140 | 9.7 | 27.4 | 0.00 | 0.00 | 0.00 | 40 | 1006.1 |
| 20260506101529 | 22 | 134 | 11.3 | 24.1 | 0.00 | 0.00 | 0.00 | 41 | 1006.1 |
| 20260506100521 | 22 | 125 | 12.9 | 24.1 | 0.00 | 0.00 | 0.00 | 42 | 1006.4 |
| 20260506095522 | 22 | 131 | 14.5 | 37.0 | 0.00 | 0.00 | 0.00 | 42 | 1006.7 |
| 20260506094530 | 21 | 136 | 12.9 | 24.1 | 0.00 | 0.00 | 0.00 | 45 | 1006.7 |
| 20260506093521 | 22 | 149 | 9.7 | 27.4 | 0.00 | 0.00 | 0.00 | 45 | 1006.9 |
| 20260506092522 | 22 | 116 | 9.7 | 27.4 | 0.00 | 0.00 | 0.00 | 44 | 1007.0 |
| 20260506091530 | 22 | 140 | 11.3 | 24.1 | 0.00 | 0.00 | 0.00 | 44 | 1007.1 |
| 20260506090522 | 22 | 120 | 11.3 | 20.9 | 0.00 | 0.00 | 0.00 | 43 | 1007.2 |
| 20260506085530 | 22 | 110 | 9.7 | 22.5 | 0.00 | 0.00 | 0.00 | 43 | 1007.2 |
| 20260506084521 | 22 | 130 | 9.7 | 22.5 | 0.00 | 0.00 | 0.00 | 41 | 1007.2 |
| 20260506083530 | 22 | 129 | 8.0 | 17.7 | 0.00 | 0.00 | 0.00 | 41 | 1007.2 |
| 20260506082521 | 22 | 144 | 6.4 | 14.5 | 0.00 | 0.00 | 0.00 | 42 | 1007.2 |
| 20260506081529 | 22 | 141 | 6.4 | 16.1 | 0.00 | 0.00 | 0.00 | 41 | 1007.0 |
| 20260506080522 | 22 | 168 | 4.8 | 9.7 | 0.00 | 0.00 | 0.00 | 40 | 1007.2 |
| 20260506072522 | 21 | 150 | 3.2 | 8.0 | 0.00 | 0.00 | 0.00 | 44 | 1007.3 |
| 20260506071530 | 21 | 138 | 4.8 | 9.7 | 0.00 | 0.00 | 0.00 | 43 | 1007.4 |
| 20260506070522 | 20 | 157 | 4.8 | 8.0 | 0.00 | 0.00 | 0.00 | 45 | 1007.6 |
| 20260506061530 | 20 | 110 | 0.0 | 3.2 | 0.00 | 0.00 | 0.00 | 49 | 1007.6 |
| 20260506060522 | 19 | 274 | 0.0 | 4.8 | 0.00 | 0.00 | 0.00 | 52 | 1007.7 |